Southeast Shoal, Ontario

7:55 PM EDT on May 27, 2017 (GMT -0400)
Southeast Shoal

Weather History for CWNB - November, 2012

Change the Weather History Date:

Sunday, November 25, 2012

  Actual Average Record
Temperature  
Mean Temperature 35 °F -  
Max Temperature 39 °F - - ()
Min Temperature 31 °F - - ()
Degree Days  
Heating Degree Days 30    
Moisture  
Dew Point 26 °F    
Average Humidity 68    
Maximum Humidity 79    
Minimum Humidity 52    
Precipitation  
Precipitation 0.00 in - - ()
Sea Level Pressure  
Sea Level Pressure 29.94 in    
Wind  
Wind Speed - ()    
Max Wind Speed -    
Max Gust Speed -    
T = Trace of Precipitation, MM = Missing Value Source: Averaged Metar Reports

Daily Weather History Graph

Daily Weather History Graph

Search for Another Location

Airport or City:

Trip Planner

Search our weather history database for the weather conditions in past years. The results will help you decide how hot, cold, wet, or windy it might be!

Date:

Astronomy

Nov. 25, 2012 Rise Set
Actual Time 7:31 AM EST 5:02 PM EST
Civil Twilight 7:01 AM EST 5:32 PM EST
Nautical Twilight 6:26 AM EST 6:07 PM EST
Astronomical Twilight 5:53 AM EST 6:40 PM EST
Moon 3:19 PM EST (11/25) 4:42 AM EST (11/25)
Length of Visible Light 10h 31m
Length of Day
9h 30m
Waxing Gibbous, 93% of the Moon is Illuminated
Nov 25
Waxing Gibbous
Nov 28
Full
Dec 6
Last Quarter
Dec 13
New
Dec 20
First Quarter

Hourly Weather History & Observations

Time (EST) Temp. Dew Point Humidity Pressure Visibility Wind Dir Wind Speed Gust Speed Precip Events Conditions
12:00 AM 32.9 °F 22.5 °F 65% 30.04 in - North - - N/A   Unknown
1:00 AM 33 °F 24 °F 59% 30.03 in - Calm Calm - -  
1:00 AM 31.5 °F 23.9 °F 74% 30.03 in - North - - N/A   Unknown
2:00 AM 31.8 °F 23.5 °F 71% 30.02 in - North - - N/A   Unknown
3:00 AM 31.8 °F 24.1 °F 73% 30.02 in - North - - N/A   Unknown
4:00 AM 31.5 °F 23.9 °F 74% 30.00 in - North - - N/A   Unknown
5:00 AM 31.1 °F 23.2 °F 72% 29.99 in - North - - N/A   Unknown
6:00 AM 31.1 °F 25.2 °F 79% 29.97 in - North - - N/A   Unknown
7:00 AM 31 °F 25 °F 70% 29.96 in - Calm Calm - -  
7:00 AM 31.5 °F 25.0 °F 77% 29.96 in - North - - N/A   Unknown
8:00 AM 31.6 °F 23.4 °F 71% 29.94 in - North - - N/A   Unknown
9:00 AM 31.3 °F 25.3 °F 79% 29.93 in - North - - N/A   Unknown
10:00 AM 33.3 °F 26.1 °F 75% 29.92 in - North - - N/A   Unknown
11:00 AM 33.6 °F 25.2 °F 71% 29.90 in - North - - N/A   Unknown
12:00 PM 35.2 °F 25.0 °F 66% 29.88 in - North - - N/A   Unknown
1:00 PM 36 °F 27 °F 59% 29.85 in - Calm Calm - -  
1:00 PM 36.1 °F 27.0 °F 69% 29.85 in - North - - N/A   Unknown
2:00 PM 36.5 °F 26.2 °F 66% 29.85 in - North - - N/A   Unknown
3:00 PM 37.2 °F 26.1 °F 64% 29.86 in - North - - N/A   Unknown
4:00 PM 37.6 °F 26.4 °F 64% 29.87 in - North - - N/A   Unknown
5:00 PM 38.1 °F 27.9 °F 67% 29.89 in - North - - N/A   Unknown
6:00 PM 38.8 °F 29.3 °F 69% 29.91 in - North - - N/A   Unknown
7:00 PM 39 °F 28 °F 52% 29.92 in - Calm Calm - -  
7:00 PM 38.7 °F 27.5 °F 64% 29.92 in - North - - N/A   Unknown
8:00 PM 39.0 °F 27.5 °F 63% 29.95 in - North - - N/A   Unknown
9:00 PM 39.2 °F 28.9 °F 67% 29.95 in - North - - N/A   Unknown
10:00 PM 39.0 °F 26.2 °F 60% 29.96 in - North - - N/A   Unknown
11:00 PM 38.8 °F 26.1 °F 60% 29.98 in - North - - N/A   Unknown